KG5VSR Weather Reports


time (UTC)temp
C
wind
direction
speed
KPH
gust
KPH
rain 1hr
cm
rain 24hr
cm
rain mn
cm
humidity
%
barometer
mb
20260505102039 21 158 3.2 8.0 0.00 0.00 0.00 89 1004.6
20260505095037 22 189 6.4 9.7 0.00 0.00 0.00 88 1004.9
20260505092037 21 169 4.8 8.0 0.00 0.00 0.00 89 1005.1
20260505085033 21 188 6.4 11.3 0.00 0.00 0.00 89 1005.2
20260505082033 21 173 8.0 11.3 0.00 0.00 0.00 89 1005.5
20260505075030 21 276 4.8 4.8 0.00 0.00 0.00 89 1005.6
20260505072029 21 182 8.0 11.3 0.00 0.00 0.00 87 1006.1
20260505065025 22 211 6.4 8.0 0.00 0.00 0.00 86 1006.1
20260505062025 22 174 12.9 17.7 0.00 0.00 0.00 84 1006.5
20260505055024 22 211 3.2 3.2 0.00 0.00 0.00 83 1006.6
20260505052019 22 184 3.2 3.2 0.00 0.00 0.00 81 1006.7
20260505035010 23 215 1.6 3.2 0.00 0.00 0.00 77 1006.9
20260505032010 23 165 3.2 4.8 0.00 0.00 0.00 77 1007.0
20260505025009 23 195 3.2 3.2 0.00 0.00 0.00 75 1007.1
20260505022010 23 155 3.2 4.8 0.00 0.00 0.00 74 1006.8
20260505015006 24 168 3.2 4.8 0.00 0.00 0.00 73 1006.9
20260505012000 24 169 9.7 14.5 0.00 0.00 0.00 72 1006.8
20260505004957 25 163 6.4 11.3 0.00 0.00 0.00 70 1006.9
20260505001956 25 183 6.4 9.7 0.00 0.00 0.00 69 1006.9
20260504234956 25 186 9.7 14.5 0.00 0.00 0.00 67 1007.1
20260504231954 26 202 3.2 3.2 0.00 0.00 0.00 66 1007.3
20260504224953 26 163 3.2 4.8 0.00 0.00 0.00 64 1007.5
20260504221952 26 201 8.0 9.7 0.00 0.00 0.00 64 1007.7
20260504214950 27 188 8.0 9.7 0.00 0.00 0.00 63 1008.1
20260504211948 27 161 9.7 14.5 0.00 0.00 0.00 61 1008.7
20260504204942 26 176 6.4 9.7 0.00 0.00 0.00 63 1009.1
20260504201937 26 130 11.3 14.5 0.00 0.00 0.00 61 1009.8
20260504194936 27 152 16.1 22.5 0.00 0.00 0.00 59 1010.5
20260504191931 26 148 12.9 14.5 0.00 0.00 0.00 58 1010.9
20260504184927 26 167 4.8 8.0 0.00 0.00 0.00 58 1011.0
20260504181926 26 188 11.3 14.5 0.00 0.00 0.00 57 1011.4
20260504174924 26 186 11.3 12.9 0.00 0.00 0.00 55 1012.0
20260504171922 25 150 4.8 4.8 0.00 0.00 0.00 54 1012.2